Weather History for Hillsdale, MI

Change the Weather History Date:

Friday, January 18, 2013

  Actual Average Record
Temperature  
Mean Temperature 27 °F -  
Max Temperature 37 °F 29 °F 59 °F (1973)
Min Temperature 19 °F 13 °F -19 °F (1976)
Degree Days  
Heating Degree Days 38    
Moisture  
Dew Point 17 °F    
Average Humidity 65    
Maximum Humidity 88    
Minimum Humidity 52    
Precipitation  
Precipitation 0.00 in - - ()
Sea Level Pressure  
Sea Level Pressure 30.22 in    
Wind  
Wind Speed 9 mph (SW)    
Max Wind Speed 20 mph    
Max Gust Speed 26 mph    
Visibility 10 miles    
Events Snow    
Averages and records for this station are not official NWS values.
T = Trace of Precipitation, MM = Missing Value Source: NWS Daily Summary

Daily Weather History Graph

Daily Weather History Graph

Search for Another Location

Airport:

Trip Planner

Search our weather history database for the weather conditions in past years. The results will help you decide how hot, cold, wet, or windy it might be!

Date:

Astronomy

Jan. 18, 2013 Rise Set
Actual Time 8:01 AM EST 5:36 PM EST
Civil Twilight 7:31 AM EST 6:06 PM EST
Nautical Twilight 6:57 AM EST 6:40 PM EST
Astronomical Twilight 6:23 AM EST 7:14 PM EST
Moon 11:32 AM EST (1/18) 12:33 AM EST (1/18)
Length of Visible Light 10h 35m
Length of Day
9h 34m
Waxing Crescent, 47% of the Moon is Illuminated
Jan 18
Waxing Crescent
Jan 18
First Quarter
Jan 26
Full
Feb 3
Last Quarter
Feb 10
New

Hourly Weather History & Observations

Time (EST) Temp. Windchill Dew Point Humidity Pressure Visibility Wind Dir Wind Speed Gust Speed Precip Events Conditions
12:15 AM 21.9 °F 11.7 °F 13.5 °F 70% 30.28 in 10.0 mi WNW 9.2 mph - N/A   Overcast
12:35 AM 21.9 °F 12.5 °F 13.8 °F 71% 30.30 in 10.0 mi WNW 8.1 mph - N/A   Overcast
12:54 AM 21.9 °F 11.7 °F 14.4 °F 73% 30.30 in 10.0 mi WNW 9.2 mph - N/A   Overcast
1:15 AM 21.9 °F 11.7 °F 14.7 °F 74% 30.31 in 10.0 mi WNW 9.2 mph - N/A   Overcast
1:35 AM 22.1 °F 15.9 °F 15.1 °F 74% 30.31 in 10.0 mi WNW 4.6 mph - N/A   Overcast
1:54 AM 22.5 °F 14.1 °F 16.0 °F 76% 30.32 in 10.0 mi WNW 6.9 mph - N/A   Overcast
2:15 AM 22.5 °F 16.3 °F 16.2 °F 77% 30.34 in 10.0 mi WNW 4.6 mph - N/A Snow Light Snow
2:35 AM 22.5 °F 14.1 °F 15.4 °F 74% 30.34 in 10.0 mi WNW 6.9 mph - N/A Snow Light Snow
2:54 AM 22.5 °F 14.1 °F 15.1 °F 73% 30.35 in 10.0 mi WNW 6.9 mph - N/A Snow Light Snow
3:15 AM 22.5 °F 15.1 °F 14.4 °F 71% 30.36 in 10.0 mi NW 5.8 mph - N/A Snow Light Snow
3:35 AM 21.9 °F 17.2 °F 14.0 °F 72% 30.35 in 7.0 mi NNW 3.5 mph - N/A Snow Light Snow
3:54 AM 21.7 °F 17.0 °F 13.6 °F 71% 30.35 in 10.0 mi NNW 3.5 mph - N/A Snow Light Snow
4:15 AM 21.7 °F - 13.8 °F 72% 30.35 in 10.0 mi Calm Calm - N/A Snow Light Snow
4:34 AM 21.6 °F - 13.6 °F 72% 30.35 in 7.0 mi Calm Calm - N/A Snow Light Snow
4:54 AM 21.4 °F - 13.6 °F 72% 30.35 in 10.0 mi Calm Calm - N/A   Overcast
5:15 AM 21.4 °F - 14.2 °F 74% 30.35 in 10.0 mi Calm Calm - N/A   Overcast
5:34 AM 21.4 °F - 13.8 °F 73% 30.36 in 10.0 mi Calm Calm - N/A   Overcast
5:55 AM 20.7 °F - 14.5 °F 77% 30.36 in 10.0 mi Calm Calm - N/A   Overcast
6:15 AM 19.9 °F - 15.1 °F 81% 30.36 in 10.0 mi Calm Calm - N/A   Overcast
6:34 AM 19.9 °F - 16.0 °F 85% 30.36 in 10.0 mi Calm Calm - N/A   Overcast
6:55 AM 20.7 °F - 15.6 °F 81% 30.37 in 10.0 mi Calm Calm - N/A   Overcast
7:15 AM 21.0 °F - 15.6 °F 80% 30.36 in 10.0 mi Calm Calm - N/A   Scattered Clouds
7:34 AM 21.0 °F - 16.2 °F 81% 30.37 in 10.0 mi Calm Calm - N/A   Clear
7:55 AM 20.7 °F - 16.5 °F 84% 30.37 in 10.0 mi Calm Calm - N/A   Scattered Clouds
8:15 AM 19.9 °F 14.9 °F 16.7 °F 87% 30.37 in 10.0 mi South 3.5 mph - N/A   Mostly Cloudy
8:34 AM 21.0 °F 14.6 °F 18.0 °F 88% 30.37 in 10.0 mi South 4.6 mph - N/A   Overcast
8:55 AM 21.7 °F 14.3 °F 18.5 °F 87% 30.36 in 10.0 mi South 5.8 mph - N/A   Mostly Cloudy
9:15 AM 22.5 °F 15.1 °F 18.1 °F 83% 30.37 in 10.0 mi SSW 5.8 mph - N/A   Mostly Cloudy
9:34 AM 23.0 °F 14.7 °F 18.0 °F 81% 30.37 in 10.0 mi SSW 6.9 mph - N/A   Mostly Cloudy
9:55 AM 23.5 °F 15.4 °F 17.4 °F 77% 30.37 in 10.0 mi SSW 6.9 mph - N/A   Mostly Cloudy
10:15 AM 25.2 °F 15.7 °F 17.2 °F 72% 30.36 in 10.0 mi SSW 9.2 mph - N/A   Mostly Cloudy
10:35 AM 25.5 °F 15.5 °F 16.9 °F 70% 30.37 in 10.0 mi SSW 10.4 mph - N/A   Overcast
10:55 AM 26.1 °F 16.2 °F 17.1 °F 69% 30.36 in 10.0 mi SSW 10.4 mph - N/A   Overcast
11:15 AM 26.4 °F 17.3 °F 16.9 °F 67% 30.34 in 10.0 mi SSW 9.2 mph - N/A   Overcast
11:34 AM 27.0 °F 16.7 °F 16.5 °F 65% 30.33 in 10.0 mi SSW 11.5 mph - N/A   Overcast
11:55 AM 27.9 °F 17.3 °F 16.7 °F 63% 30.32 in 10.0 mi SSW 12.7 mph - N/A   Overcast
12:15 PM 28.9 °F 18.6 °F 16.2 °F 59% 30.31 in 10.0 mi SW 12.7 mph - N/A   Mostly Cloudy
12:34 PM 28.8 °F 18.4 °F 16.2 °F 59% 30.28 in 10.0 mi SW 12.7 mph 16.1 mph N/A   Clear
12:55 PM 29.1 °F 18.4 °F 16.5 °F 59% 30.26 in 10.0 mi SSW 13.8 mph 17.3 mph N/A   Clear
1:15 PM 29.8 °F 18.9 °F 16.3 °F 57% 30.24 in 10.0 mi SSW 15.0 mph - N/A   Clear
1:34 PM 30.9 °F 20.2 °F 16.7 °F 56% 30.23 in 10.0 mi SSW 15.0 mph 19.6 mph N/A   Clear
1:55 PM 32.4 °F 21.3 °F 17.1 °F 53% 30.22 in 10.0 mi SSW 17.3 mph - N/A   Clear
2:14 PM 32.5 °F 22.7 °F 17.1 °F 53% 30.21 in 10.0 mi SSW 13.8 mph 21.9 mph N/A   Scattered Clouds
2:35 PM 32.2 °F 22.3 °F 17.8 °F 55% 30.19 in 10.0 mi SSW 13.8 mph 23.0 mph N/A   Scattered Clouds
2:55 PM 32.2 °F 21.4 °F 18.3 °F 57% 30.17 in 10.0 mi South 16.1 mph 23.0 mph N/A   Scattered Clouds
3:14 PM 33.3 °F 22.1 °F 19.0 °F 56% 30.15 in 10.0 mi SSW 18.4 mph 24.2 mph N/A   Clear
3:35 PM 34.2 °F 23.0 °F 19.2 °F 54% 30.15 in 10.0 mi SSW 19.6 mph 26.5 mph N/A   Clear
3:55 PM 34.3 °F 23.5 °F 19.0 °F 54% 30.13 in 10.0 mi SSW 18.4 mph - N/A   Scattered Clouds
4:14 PM 34.9 °F 25.3 °F 19.0 °F 52% 30.13 in 10.0 mi SSW 15.0 mph 20.7 mph N/A   Clear
4:35 PM 34.9 °F 25.7 °F 19.8 °F 54% 30.12 in 10.0 mi SSW 13.8 mph 21.9 mph N/A   Scattered Clouds
4:41 PM 34.3 °F 24.6 °F 19.8 °F 55% 30.11 in 10.0 mi South 15.0 mph 21.9 mph N/A   Scattered Clouds
5:15 PM 33.8 °F 24.8 °F 19.4 °F 56% 30.10 in 10.0 mi SSW 12.7 mph 21.9 mph N/A   Mostly Cloudy
5:35 PM 33.8 °F 23.9 °F 19.4 °F 56% 30.08 in 10.0 mi South 15.0 mph 21.9 mph N/A   Mostly Cloudy
5:55 PM 33.8 °F 23.5 °F 19.4 °F 56% 30.08 in 10.0 mi South 16.1 mph 26.5 mph N/A   Scattered Clouds
6:15 PM 33.8 °F 23.2 °F 19.4 °F 56% 30.07 in 10.0 mi SSW 17.3 mph 24.2 mph N/A   Clear
6:35 PM 33.8 °F 23.9 °F 19.4 °F 56% 30.06 in 10.0 mi South 15.0 mph 25.3 mph N/A   Clear
6:55 PM 33.8 °F 23.5 °F 19.4 °F 56% 30.05 in 10.0 mi South 16.1 mph 23.0 mph N/A   Clear
7:15 PM 33.8 °F 23.2 °F 19.4 °F 56% 30.04 in 10.0 mi SSW 17.3 mph 23.0 mph N/A   Clear
7:35 PM 33.8 °F 23.2 °F 19.4 °F 56% 30.03 in 10.0 mi South 17.3 mph 26.5 mph N/A   Clear
7:55 PM 33.8 °F 23.5 °F 19.4 °F 56% 30.01 in 10.0 mi SSW 16.1 mph 24.2 mph N/A   Clear
8:15 PM 33.8 °F 22.8 °F 19.4 °F 56% 30.01 in 10.0 mi SSW 18.4 mph 26.5 mph N/A   Clear
8:35 PM 33.8 °F 24.3 °F 19.4 °F 56% 30.01 in 10.0 mi SSW 13.8 mph 24.2 mph N/A   Clear
8:55 PM 35.6 °F 25.2 °F 19.4 °F 52% 30.01 in 10.0 mi SSW 18.4 mph 23.0 mph N/A   Clear
9:15 PM 33.8 °F 23.9 °F 19.4 °F 56% 30.00 in 10.0 mi SSW 15.0 mph 20.7 mph N/A   Clear
9:35 PM 35.6 °F 25.9 °F 19.4 °F 52% 30.01 in 10.0 mi SSW 16.1 mph 24.2 mph N/A   Clear
9:55 PM 35.6 °F 26.2 °F 19.4 °F 52% 30.01 in 10.0 mi SSW 15.0 mph 24.2 mph N/A   Clear
10:15 PM 35.6 °F 25.2 °F 19.4 °F 52% 30.00 in 10.0 mi SSW 18.4 mph 25.3 mph N/A   Clear
10:35 PM 35.6 °F 26.6 °F 21.2 °F 56% 29.99 in 10.0 mi SW 13.8 mph 25.3 mph N/A   Clear
10:55 PM 35.6 °F 26.2 °F 21.2 °F 56% 29.98 in 10.0 mi SSW 15.0 mph 20.7 mph N/A   Clear
11:15 PM 35.6 °F 26.2 °F 21.2 °F 56% 29.98 in 10.0 mi SW 15.0 mph 24.2 mph N/A   Clear
11:35 PM 35.6 °F 26.6 °F 21.2 °F 56% 29.97 in 10.0 mi SW 13.8 mph 23.0 mph N/A   Clear
11:55 PM 37.4 °F 28.2 °F 21.2 °F 52% 29.96 in 10.0 mi SSW 16.1 mph 23.0 mph N/A   Clear